Weather History for KROC - July, 2014

Change the Weather History Date:

Tuesday, July 22, 2014

  Actual Average Record
Temperature  
Mean Temperature 76 °F 71 °F  
Max Temperature 88 °F 81 °F 97 °F (1955)
Min Temperature 63 °F 61 °F 46 °F (1970)
Degree Days  
Heating Degree Days 0 0  
Month to date heating degree days 1 6  
Since 1 June heating degree days 30 74  
Since 1 July heating degree days 1 6  
Cooling Degree Days 11 6  
Month to date cooling degree days 122 132  
Year to date cooling degree days 311 268  
Since 1 June cooling degree days 272 238  
Growing Degree Days 26 (Base 50)    
Moisture  
Dew Point 65 °F    
Average Humidity 73    
Maximum Humidity 100    
Minimum Humidity 46    
Precipitation  
Precipitation 0.00 in 0.11 in 2.15 in (1947)
Month to date precipitation 3.67 2.32  
Year to date precipitation 18.73 18.12  
Snow  
Snow 0.00 in 0.00 in 0.00 in ()
Month to date snowfall 0.0 0.0  
Since 1 June snowfall 0.0 0.0  
Since 1 July snowfall 0.0 0.0  
Snow Depth 0.00 in    
Sea Level Pressure  
Sea Level Pressure 30.08 in    
Wind  
Wind Speed 3 mph (WSW)    
Max Wind Speed 12 mph    
Max Gust Speed 15 mph    
Visibility 6 miles    
Events Fog    
T = Trace of Precipitation, MM = Missing Value Source: NWS Daily Summary

Daily Weather History Graph

Daily Weather History Graph

Search for Another Location

Airport or City:

Trip Planner

Search our weather history database for the weather conditions in past years. The results will help you decide how hot, cold, wet, or windy it might be!

Date:

Astronomy

Jul. 22, 2014 Rise Set
Actual Time 5:51 AM EDT 8:42 PM EDT
Civil Twilight 5:17 AM EDT 9:15 PM EDT
Nautical Twilight 4:35 AM EDT 9:58 PM EDT
Astronomical Twilight 3:45 AM EDT 10:47 PM EDT
Moon 2:23 AM EDT (7/22) 5:17 PM EDT (7/22)
Length of Visible Light 15h 58m
Length of Day
14h 51m
Waning Crescent, 16% of the Moon is Illuminated
Jul 22
Waning Crescent
Jul 26
New
Aug 3
First Quarter
Aug 10
Full
Aug 17
Last Quarter

Hourly Weather History & Observations

Time (EDT) Temp. Heat Index Dew Point Humidity Pressure Visibility Wind Dir Wind Speed Gust Speed Precip Events Conditions
12:54 AM 66.9 °F - 64.9 °F 93% 30.13 in 7.0 mi Calm Calm - N/A   Partly Cloudy
1:54 AM 66.0 °F - 64.9 °F 96% 30.13 in 6.0 mi WSW 3.5 mph - N/A   Scattered Clouds
2:54 AM 66.0 °F - 64.0 °F 93% 30.12 in 4.0 mi SW 3.5 mph - N/A   Partly Cloudy
3:23 AM 64.4 °F - 64.4 °F 100% 30.12 in 2.5 mi WSW 3.5 mph - N/A   Partly Cloudy
3:54 AM 64.9 °F - 64.0 °F 97% 30.12 in 3.0 mi Calm Calm - N/A   Partly Cloudy
4:04 AM 64.4 °F - 64.4 °F 100% 30.11 in 2.0 mi Calm Calm - N/A   Scattered Clouds
4:20 AM 64.4 °F - 62.6 °F 94% 30.12 in 0.5 mi WSW 3.5 mph - N/A Fog Fog
4:33 AM 64.4 °F - 62.6 °F 94% 30.12 in 0.1 mi WSW 3.5 mph - N/A Fog Fog
4:43 AM 64.4 °F - 62.6 °F 94% 30.12 in 0.2 mi Calm Calm - N/A Fog Fog
4:54 AM 64.0 °F - 63.0 °F 96% 30.12 in 0.2 mi Calm Calm - N/A Fog Fog
5:01 AM 64.4 °F - 62.6 °F 94% 30.12 in 0.2 mi Calm Calm - N/A Fog Fog
5:10 AM 64.4 °F - 62.6 °F 94% 30.12 in 0.5 mi Calm Calm - N/A Fog Fog
5:18 AM 64.4 °F - 62.6 °F 94% 30.13 in 2.5 mi Calm Calm - N/A   Partly Cloudy
5:54 AM 63.0 °F - 62.1 °F 97% 30.14 in 3.0 mi WSW 3.5 mph - N/A   Partly Cloudy
6:54 AM 64.0 °F - 63.0 °F 96% 30.14 in 4.0 mi SW 4.6 mph - N/A   Scattered Clouds
7:54 AM 68.0 °F - 66.0 °F 93% 30.14 in 8.0 mi WSW 4.6 mph - N/A   Clear
8:54 AM 73.0 °F - 66.0 °F 79% 30.14 in 10.0 mi SW 4.6 mph - N/A   Clear
9:54 AM 77.0 °F - 64.9 °F 66% 30.13 in 10.0 mi Calm Calm - N/A   Clear
10:54 AM 81.0 °F 82.2 °F 63.0 °F 54% 30.12 in 10.0 mi Calm Calm - N/A   Partly Cloudy
11:54 AM 82.0 °F 83.4 °F 64.0 °F 54% 30.09 in 10.0 mi SW 4.6 mph - N/A   Partly Cloudy
1:54 PM 84.9 °F 88.2 °F 68.0 °F 57% 30.05 in 10.0 mi SW 6.9 mph - N/A   Mostly Cloudy
2:54 PM 86.0 °F 88.8 °F 66.9 °F 53% 30.04 in 10.0 mi Calm Calm - N/A   Mostly Cloudy
3:54 PM 87.1 °F 89.2 °F 66.0 °F 49% 30.02 in 10.0 mi Calm Calm - N/A   Mostly Cloudy
4:54 PM 87.1 °F 88.9 °F 64.9 °F 48% 30.00 in 10.0 mi Calm Calm - N/A   Mostly Cloudy
5:54 PM 88.0 °F 90.7 °F 66.9 °F 49% 29.99 in 10.0 mi Calm Calm - N/A   Scattered Clouds
6:54 PM 86.0 °F 88.2 °F 66.0 °F 51% 29.99 in 10.0 mi West 5.8 mph - N/A   Scattered Clouds
7:54 PM 84.0 °F 86.3 °F 66.0 °F 55% 29.99 in 10.0 mi West 5.8 mph - N/A   Partly Cloudy
8:54 PM 80.1 °F 82.3 °F 66.9 °F 64% 29.97 in 10.0 mi SSW 3.5 mph - N/A   Clear
9:54 PM 77.0 °F - 68.0 °F 74% 29.96 in 10.0 mi SSW 4.6 mph - N/A   Clear
10:54 PM 75.9 °F - 68.0 °F 76% 29.96 in 10.0 mi West 3.5 mph - N/A   Clear
11:54 PM 73.0 °F - 68.0 °F 84% 29.96 in 10.0 mi Calm Calm - N/A   Clear